Weather past 2 weeks in Amsterdam Island, French Southern Territories

Now
65 °F

Mild.


Feels Like: 65 °F
Forecast: 67 / 70 °F
Wind: 9 mph from East

Location: Martin De Vivies Ile Amsterdam

Current Time: Feb 28, 2015 at 10:32:39 PM

Latest Report: Feb 28, 2015 at 9:00 PM


Visibility: N/A

Pressure: 30.09 "Hg

Humidity: 82%

Dew point: 59 °F

Location of Amsterdam IslandLocation

Historic Weather in Amsterdam Island — Graph

°F

Amsterdam Island temperature yesterday

Maximum temperature yesterday: 69 °F (at 1:00 PM)
Minimum temperature yesterday: 60 °F (at 1:00 AM)
Average temperature yesterday: 63 °F

Past Weeks' High & Low Weather Summary

 TemperatureHumidityPressure
High74 °F (Feb 24, 1:00 PM)95% (Feb 20, 2:00 AM)30.32 "Hg (Feb 20, 2:00 AM)
Low57 °F (Feb 26, 1:00 AM)48% (Feb 27, 1:00 PM)30.08 "Hg (Feb 14, 4:00 AM)
Average65 °F76%30.19 "Hg
* Reported Feb 13 9:00 PM — Feb 28 9:00 PM, Amsterdam Island, Weather by CustomWeather, © 2015

Note: Actual official high and low records may vary slightly from our data, if they occured in-between our weather recording intervals... More about our weather records

Advertising

Amsterdam Island weather history for previous 24 hours

 ConditionsComfort  
Time TempWeatherWind HumidityBarometerVisibility
9:00 PM
Sat, Feb 28
65 °FMild.9 mph82%30.09 "HgN/A
8:00 PM65 °FMild.14 mph80%30.11 "HgN/A
7:00 PM65 °FMild.12 mph76%30.11 "HgN/A
6:00 PM65 °FMild.8 mph76%30.11 "HgN/A
5:00 PM66 °FMild.10 mph71%30.12 "HgN/A
4:00 PM68 °FMild.10 mph64%30.13 "HgN/A
3:00 PM71 °FMild.8 mph55%30.13 "HgN/A
2:00 PM71 °FMild.8 mph56%30.15 "HgN/A
1:00 PM71 °FMild.9 mph55%30.17 "HgN/A
12:00 PM70 °FMild.9 mph56%30.18 "HgN/A
11:00 AM71 °FMild.9 mph57%30.18 "HgN/A
10:00 AM69 °FMild.9 mph53%30.19 "HgN/A
9:00 AM68 °FMild.9 mph53%30.21 "HgN/A
7:00 AM64 °FMild.7 mph62%30.22 "HgN/A
6:00 AM63 °FMild.7 mph62%30.21 "HgN/A
5:00 AM62 °FMild.6 mph63%30.21 "HgN/A
4:00 AM62 °FCool.5 mph62%30.21 "HgN/A
3:00 AM62 °FCool.6 mph63%30.22 "HgN/A
1:00 AM62 °FCool.6 mph64%30.23 "HgN/A
12:00 AM62 °FCool.6 mph69%30.24 "HgN/A
11:00 PM
Fri, Feb 27
61 °FCool.6 mph66%30.24 "HgN/A
10:00 PM62 °FCool.10 mph67%30.25 "HgN/A
Weather by CustomWeather, © 2015

See weather overviewHow to use our weather pages